{"data":{"norad_id":62653,"epoch":"2026-09-22T21:15:24.817824Z","epoch_age_seconds":111458,"freshness":"FRESH","line1":"1 62653U 25009AW  26265.88570391  .00002684  00000+0  11313-3 0  9991","line2":"2 62653  97.3892 344.1460 0001736  38.4778 321.6583 15.24181068 93666","mean_motion":15.24181068,"eccentricity":0.0001736,"inclination_deg":97.3892,"raan_deg":344.146,"arg_perigee_deg":38.4778,"mean_anomaly_deg":321.6583,"bstar":0.00011313,"rev_number":9366,"period_min":94.476964071568,"perigee_km":492.05275796544,"apogee_km":494.43850201457,"semimajor_km":6871.38262999,"source":"CELESTRAK","updated_at":"2026-09-23T09:00:21.540572Z"}}